www.pogodaiklimat.ru

Погода и климат >> Архив погоды >> Венгрия >> Zalaegerszeg


ПОГОДА в Zalaegerszeg

  • Прогноз погоды в Zalaegerszeg
  • Монитор погоды в Zalaegerszeg
  • Климат города

АРХИВ ПОГОДЫ в Zalaegerszeg

Время (UTC), дата Ветер
(напр.,м/с)
 
Видим.   Явления Облачность Т
(С)
Тd
(С)
f
(%)
Тe
(С)
Тes
(С)
Комфортность P
(гПа)
Po
(гПа)
Тmin
(С)
Tmax
(С)
R
(мм)
R24
(мм)
S
(см)
02 11.10 СЗ 1 н/о н/о +10.5 +9.4 93 +10 +10 1024.3 995.1
01 11.10 СЗ 2 н/о н/о +10.9 +9.7 92 +9 +9 1024.7 995.5
03 11.10 С 1 н/о н/о +10.3 +9.1 92 +10 +10 1024.2 994.9
04 11.10 З 1 н/о н/о +9.0 +8.1 94 +8 +8 1024.3 994.9
05 11.10 СЗ 1 н/о н/о +8.9 +8.1 95 +8 +8 1024.2 994.8
06 11.10 С 1 н/о н/о +9.1 +8.3 95 +8 +8 1024.6 995.2 +8.5
08 11.10 З 1 н/о н/о +13.2 +10.6 84 +13 +13 1024.6 995.6
07 11.10 штиль 0 н/о н/о +10.7 +9.6 93 +10 +10 1024.6 995.4
09 11.10 ЮЗ 1 н/о н/о +16.7 +11.6 72 +18 +18 1024.2 995.6
10 11.10 В 1 н/о н/о +19.2 +11.8 62 +21 +21 комфорт 1024.0 995.6
11 11.10 ЮВ 2 н/о н/о +20.0 +11.5 58 +22 +22 комфорт 1023.5 995.2
12 11.10 В 3 н/о н/о +20.9 +11.3 54 +23 +23 комфорт 1022.8 994.6
14 11.10 В 3 н/о н/о +21.3 +10.2 49 +23 +23 комфорт 1022.3 994.2
13 11.10 В 3 н/о н/о +21.8 +10.0 47 +23 +23 комфорт 1022.3 994.2
15 11.10 ЮВ 3 н/о н/о +20.5 +11.2 55 +23 +23 комфорт 1022.3 994.1
16 11.10 Ю 1 н/о н/о +19.4 +12.2 63 +22 +22 комфорт 1022.2 993.9
17 11.10 Ю 1 н/о н/о +16.6 +12.4 76 +17 +17 1023.0 994.4
18 11.10 ЮЗ 1 н/о н/о +16.4 +11.6 73 +17 +17 1023.2 994.6 +21.8
20 11.10 ЮВ 1 н/о н/о +13.8 +12.0 89 +14 +14 1024.1 995.2
19 11.10 Ю 1 н/о н/о +13.8 +11.8 88 +14 +14 1023.8 994.9
21 11.10 Ю 1 н/о н/о +13.2 +11.6 90 +13 +13 1024.5 995.5
22 11.10 ЮВ 2 н/о н/о +11.5 +10.4 93 +10 +10 1024.9 995.7
23 11.10 ЮВ 2 н/о н/о +11.7 +10.8 94 +10 +10 1024.8 995.7
00 12.10 ЮВ 2 н/о н/о +11.1 +10.2 94 +10 +10 1024.9 995.7
02 12.10 ЮВ 2 н/о н/о +10.4 +9.3 93 +9 +9 1025.3 996.0
01 12.10 ЮВ 2 н/о н/о +11.0 +10.2 95 +10 +10 1025.0 995.8
03 12.10 ЮВ 2 н/о н/о +9.1 +8.3 95 +7 +7 1025.5 996.1
04 12.10 ЮВ 2 н/о н/о +8.6 +7.7 94 +7 +7 1026.0 996.5
05 12.10 ЮВ 2 н/о н/о +8.5 +7.7 95 +6 +6 1026.3 996.8
06 12.10 Ю 1 н/о н/о +9.9 +8.7 92 +9 +9 1026.9 997.5 +8.0
08 12.10 ЮВ 1 н/о н/о +14.1 +10.5 79 +14 +14 1027.7 998.7
07 12.10 ЮЗ 1 н/о н/о +11.7 +9.3 85 +12 +12 1027.4 998.2
09 12.10 ЮВ 1 н/о н/о +16.2 +10.5 69 +17 +17 1027.8 999.0
10 12.10 Ю 2 н/о н/о +17.4 +10.1 62 +18 +18 1027.9 999.2
11 12.10 ЮВ 3 н/о н/о +18.9 +9.7 55 +20 +20 1027.5 999.0
12 12.10 ЮВ 2 н/о н/о +19.6 +9.8 53 +21 +21 комфорт 1027.0 998.6
14 12.10 ЮВ 2 н/о н/о +19.9 +8.9 49 +22 +22 комфорт 1026.7 998.3
13 12.10 В 2 н/о н/о +19.7 +8.4 48 +21 +21 комфорт 1026.8 998.4
15 12.10 В 2 н/о н/о +19.6 +9.8 53 +21 +21 комфорт 1026.7 998.3
16 12.10 В 2 н/о н/о +17.5 +10.4 63 +18 +18 1027.0 998.4
17 12.10 ЮВ 2 н/о н/о +15.9 +10.0 68 +16 +16 1027.5 998.7
18 12.10 ЮВ 1 н/о н/о +14.6 +9.6 72 +15 +15 1027.8 998.9 +20.2
20 12.10 штиль 0 н/о н/о +12.8 +9.4 80 +12 +12 1028.6 999.5
19 12.10 ЮВ 1 н/о н/о +13.3 +9.5 78 +14 +14 1028.4 999.3
21 12.10 штиль 0 н/о н/о +12.2 +10.3 88 +12 +12 1028.9 999.7
22 12.10 штиль 0 н/о н/о +11.2 +9.6 90 +11 +11 1029.0 999.7
23 12.10 СЗ 1 н/о н/о +11.4 +9.8 90 +11 +11 1028.9 999.6
00 13.10 СЗ 2 н/о н/о +11.4 +9.1 86 +10 +10 1028.9 999.6
02 13.10 З 1 н/о н/о +10.0 +8.3 89 +9 +9 1028.8 999.4
01 13.10 СЗ 1 н/о н/о +10.5 +8.4 87 +10 +10 1028.8 999.4
03 13.10 СЗ 1 н/о н/о +9.5 +8.1 91 +9 +9 1028.9 999.4
04 13.10 СЗ 1 н/о н/о +9.1 +8.0 93 +8 +8 1028.8 999.3
05 13.10 СЗ 1 н/о н/о +8.7 +7.6 93 +8 +8 1028.8 999.2
06 13.10 СЗ 2 н/о н/о +9.2 +8.1 93 +7 +7 1028.9 999.4 +8.7
08 13.10 С 1 н/о н/о +13.7 +9.7 77 +14 +14 1029.2 1000.1
07 13.10 СЗ 2 н/о н/о +10.3 +8.6 89 +9 +9 1029.2 999.8
09 13.10 ЮВ 1 н/о н/о +16.3 +9.9 66 +17 +17 1029.0 1000.2
10 13.10 Ю 2 н/о н/о +18.1 +10.2 60 +19 +19 1028.9 1000.3
11 13.10 ЮВ 3 н/о н/о +19.1 +9.0 52 +20 +20 1028.3 999.8
12 13.10 ЮВ 4 н/о н/о +20.0 +9.0 49 +21 +21 комфорт 1027.5 999.1
14 13.10 ЮВ 3 н/о н/о +20.5 +8.8 47 +22 +22 комфорт 1026.5 998.2
13 13.10 В 3 н/о н/о +20.6 +8.9 47 +22 +22 комфорт 1026.8 998.5
15 13.10 В 2 н/о н/о +19.7 +10.4 55 +22 +22 комфорт 1026.2 997.8
16 13.10 В 1 н/о н/о +17.9 +10.5 62 +19 +19 1026.2 997.6
17 13.10 ЮВ 1 н/о н/о +15.5 +10.1 70 +16 +16 1026.4 997.6
18 13.10 ЮВ 1 н/о н/о +14.1 +9.3 73 +15 +15 1026.8 997.8 +20.7
20 13.10 В 2 н/о н/о +12.3 +9.0 80 +11 +11 1026.6 997.5
19 13.10 штиль 0 н/о н/о +13.3 +9.0 75 +13 +13 1026.6 997.6
21 13.10 ЮВ 1 н/о н/о +12.3 +9.3 82 +12 +12 1026.4 997.3
22 13.10 ЮВ 1 н/о н/о +11.6 +8.5 81 +11 +11 1026.2 997.0
23 13.10 штиль 0 н/о н/о +12.3 +8.0 75 +12 +12 1026.1 997.0
00 14.10 СЗ 2 н/о н/о +10.9 +8.8 87 +10 +10 1026.2 996.9
02 14.10 СЗ 2 н/о н/о +9.5 +8.1 91 +8 +8 1026.0 996.6
01 14.10 СЗ 2 н/о н/о +10.2 +8.1 87 +9 +9 1026.2 996.9
03 14.10 штиль 0 н/о н/о +9.2 +7.6 90 +8 +8 1025.5 996.1
04 14.10 С 1 н/о н/о +8.6 +7.5 93 +8 +8 1025.5 996.0
05 14.10 СВ 1 н/о н/о +8.2 +7.0 92 +7 +7 1025.2 995.7
06 14.10 СЗ 1 н/о н/о +7.7 +6.8 94 +7 +7 1024.9 995.4 +7.7
08 14.10 ЮВ 2 н/о н/о +13.1 +9.2 77 +12 +12 1024.9 995.9
07 14.10 штиль 0 н/о н/о +10.3 +8.9 91 +10 +10 1025.2 995.9
09 14.10 Ю 2 н/о н/о +15.8 +9.2 65 +16 +16 1024.5 995.8
10 14.10 ЮВ 5
{7}
н/о н/о +17.3 +5.3 45 +17 +17 1024.0 995.4
11 14.10 ЮВ 5
{8}
н/о н/о +18.1 +5.3 43 +18 +18 1023.8 995.3
12 14.10 ЮВ 3
{7}
н/о н/о +18.8 +6.3 44 +19 +19 1022.9 994.5
14 14.10 ЮВ 3
{8}
н/о н/о +19.7 +2.1 31 +20 +20 1021.8 993.5
13 14.10 ЮВ 4 н/о н/о +19.8 +2.2 31 +20 +20 1022.2 993.9
15 14.10 ЮВ 2 н/о н/о +19.5 +3.6 35 +20 +20 1021.4 993.1
16 14.10 ЮВ 2 н/о н/о +16.7 +5.6 48 +17 +17 1021.9 993.3
17 14.10 Ю 1 н/о н/о +14.5 +5.0 53 +15 +15 1022.3 993.5
18 14.10 В 1 н/о н/о +13.1 +4.8 57 +13 +13 1022.6 993.7 +20.0
20 14.10 ЮВ 2 н/о н/о +13.2 +3.0 50 +13 +13 1022.8 993.9
19 14.10 ЮВ 1 н/о н/о +13.9 +3.7 50 +14 +14 1022.7 993.8
21 14.10 В 1 н/о н/о +10.7 +4.6 66 +11 +11 1023.0 993.8
22 14.10 В 3 н/о н/о +9.2 +4.2 71 +7 +7 1022.9 993.6
23 14.10 В 3 н/о н/о +9.1 +3.7 69 +7 +7 1022.8 993.5
00 15.10 В 3 н/о н/о +9.1 +3.3 67 +7 +7 1022.8 993.5
02 15.10 В 3 н/о н/о +9.1 +2.4 63 +7 +7 1022.6 993.3
01 15.10 В 1 н/о н/о +9.3 +2.6 63 +9 +9 1022.8 993.5
03 15.10 В 3 н/о н/о +9.7 +1.8 58 +8 +8 1022.7 993.4
04 15.10 С 1 н/о н/о +7.6 +2.3 69 +7 +7 1022.8 993.3
05 15.10 СЗ 2 н/о н/о +5.9 +2.9 81 +4 +4 1022.9 993.2
06 15.10 СЗ 2 н/о н/о +5.5 +3.5 87 +3 +3 1023.1 993.4 +5.4
08 15.10 З 1 н/о н/о +10.5 +5.7 72 +10 +10 1023.3 994.1
07 15.10 С 1 н/о н/о +7.2 +4.2 81 +6 +6 1023.5 993.9
09 15.10 В 3 н/о н/о +13.4 +4.8 56 +12 +12 1023.0 994.1
10 15.10 ЮВ 4 н/о н/о +14.7 +4.4 50 +14 +14 1022.7 993.9
11 15.10 ЮВ 3 н/о н/о +15.4 +4.8 49 +15 +15 1022.4 993.7
12 15.10 В 3 н/о н/о +16.1 +6.0 51 +16 +16 1021.9 993.3
14 15.10 ЮВ 3 н/о н/о +17.1 +6.6 50 +17 +17 1021.3 992.8
13 15.10 ЮВ 2 н/о н/о +16.8 +6.3 50 +17 +17 1021.5 993.0
15 15.10 Ю 2 н/о н/о +16.2 +6.9 54 +16 +16 1021.6 993.0
16 15.10 ЮЗ 1 н/о н/о +14.5 +7.5 63 +15 +15 1021.8 993.0
17 15.10 З 1 н/о н/о +13.2 +7.0 66 +14 +14 1021.9 993.0
18 15.10 З 1 н/о н/о +12.4 +6.0 65 +13 +13 1022.1 993.1 +17.4
20 15.10 ЮВ 1 н/о н/о +9.2 +6.6 84 +9 +9 1022.6 993.3
19 15.10 ЮЗ 1 н/о н/о +11.3 +6.0 70 +11 +11 1022.2 993.1
21 15.10 штиль 0 н/о н/о +10.1 +6.6 79 +9 +9 1022.5 993.3
22 15.10 ЮЗ 1 н/о н/о +9.9 +6.6 80 +9 +9 1022.6 993.3
23 15.10 штиль 0 н/о н/о +9.2 +7.0 86 +8 +8 1022.3 993.0
00 16.10 Ю 1 н/о н/о +8.3 +6.4 88 +7 +7 1022.3 992.9
02 16.10 Ю 1 н/о н/о +9.1 +6.9 86 +8 +8 1022.0 992.7
01 16.10 ЮВ 2 н/о н/о +7.2 +5.7 90 +5 +5 1022.4 992.9
03 16.10 Ю 1 н/о н/о +9.4 +7.2 86 +9 +9 1021.8 992.5
04 16.10 ЮВ 2 н/о н/о +9.8 +6.7 81 +8 +8 1021.6 992.4
05 16.10 Ю 2 н/о н/о +10.3 +6.4 77 +9 +9 1021.8 992.6
06 16.10 ЮЗ 1 н/о н/о +9.9 +7.5 85 +9 +9 1022.1 992.9 +7.1
08 16.10 Ю 1 н/о н/о +12.4 +7.9 74 +12 +12 1022.5 993.5
07 16.10 Ю 1 н/о н/о +11.1 +7.4 78 +11 +11 1022.3 993.2
09 16.10 Ю 2 н/о н/о +13.9 +8.1 68 +13 +13 1022.4 993.6
10 16.10 ЮВ 2 н/о н/о +14.5 +8.7 68 +14 +14 1022.5 993.7
11 16.10 В 2 н/о н/о +14.7 +9.5 71 +14 +14 1022.5 993.7
12 16.10 ЮВ 2 н/о н/о +15.0 +9.4 69 +15 +15 1022.0 993.3
14 16.10 ЮВ 2 н/о н/о +15.6 +9.7 68 +16 +16 1021.9 993.2
13 16.10 ЮВ 2 н/о н/о +15.6 +9.3 66 +16 +16 1021.8 993.1
15 16.10 ЮВ 2 н/о н/о +15.1 +10.3 73 +15 +15 1021.9 993.2
16 16.10 В 1 н/о н/о +14.0 +10.2 78 +14 +14 1021.9 993.1
17 16.10 В 2 н/о н/о +12.3 +9.9 85 +11 +11 1022.2 993.2
18 16.10 ЮВ 2 н/о н/о +12.0 +9.6 85 +11 +11 1022.1 993.1 +15.9
20 16.10 Ю 2 н/о н/о +11.8 +9.5 86 +11 +11 1022.6 993.5
19 16.10 З 1 н/о н/о +12.0 +9.7 86 +12 +12 1022.3 993.3
21 16.10 штиль 0 н/о н/о +11.7 +9.4 86 +11 +11 1022.6 993.5
22 16.10 штиль 0 н/о н/о +11.5 +9.6 88 +11 +11 1022.5 993.4
23 16.10 ЮВ 2 н/о н/о +9.8 +8.6 92 +8 +8 1022.4 993.1
00 17.10 ЮВ 3 н/о н/о +11.4 +9.3 87 +10 +10 1021.8 992.7
02 17.10 ЮВ 1 н/о н/о +11.3 +9.4 88 +11 +11 1021.5 992.4
01 17.10 Ю 1 н/о н/о +11.2 +9.5 89 +11 +11 1021.8 992.7
03 17.10 Ю 1 н/о н/о +11.3 +9.4 88 +11 +11 1021.3 992.2
04 17.10 ЮЗ 1 н/о н/о +10.1 +8.9 92 +10 +10 1021.3 992.1
05 17.10 ЮЗ 1 н/о н/о +10.4 +9.3 93 +10 +10 1021.4 992.2
06 17.10 штиль 0 н/о н/о +10.5 +9.3 92 +10 +10 1021.7 992.5 +9.6
08 17.10 Ю 1 н/о н/о +12.7 +10.1 84 +13 +13 1022.1 993.1
07 17.10 Ю 1 н/о н/о +11.7 +10.1 90 +11 +11 1021.7 992.7
09 17.10 Ю 2 н/о н/о +15.5 +9.8 69 +15 +15 1021.6 992.9
10 17.10 Ю 1 н/о н/о +16.2 +10.9 71 +17 +17 1021.5 992.9
11 17.10 Ю 2 н/о н/о +18.5 +10.3 59 +19 +19 1020.4 992.1
12 17.10 В 2 н/о н/о +19.6 +10.0 54 +21 +21 комфорт 1019.9 991.7
14 17.10 ЮВ 1 н/о н/о +20.4 +9.9 51 +23 +23 комфорт 1019.3 991.2
13 17.10 Ю 1 н/о н/о +20.2 +10.3 53 +23 +23 комфорт 1019.6 991.4
15 17.10 ЮВ 2 н/о н/о +19.5 +11.0 58 +21 +21 комфорт 1019.4 991.2
16 17.10 В 2 н/о н/о +16.8 +12.3 75 +17 +17 1019.5 991.0
17 17.10 В 1 н/о н/о +15.5 +9.6 68 +16 +16 1019.7 991.1
18 17.10 В 2 н/о н/о +15.1 +9.5 69 +15 +15 1019.9 991.2 +20.7
20 17.10 С 1 н/о н/о +14.1 +9.7 75 +14 +14 1020.3 991.5
19 17.10 штиль 0 н/о н/о +15.4 +8.9 65 +15 +15 1019.9 991.3
21 17.10 СЗ 1 н/о н/о +14.2 +11.2 82 +15 +15 1020.3 991.5
22 17.10 СЗ 1 н/о н/о +13.4 +11.5 88 +14 +14 1020.2 991.4
23 17.10 СЗ 1 н/о н/о +13.4 +11.5 88 +14 +14 1019.9 991.1
00 18.10 СЗ 1 н/о н/о +12.8 +11.4 91 +13 +13 1019.9 991.0

 

Местоположение метеостанции Zalaegerszeg (Венгрия): широта 46.87 долгота 16.80 высота над уровнем моря 180 м.

В архиве по умолчанию представлена погода в Zalaegerszeg за последнюю неделю. Архивные данные за месяц целиком и за предыдущие месяцы, начиная с января 2011 года, Вы можете получить, выбрав интересующий диапазон дат из раскрывающегося списка и нажав кнопку "Ввод!".


*Определитесь, кто Вы:
робот инопланетянин человек

Внимание! Время в таблицах - всемирное. Для получения местного времени необходимо прибавить поправку, которая в Zalaegerszeg равна 1 ч.

Смотрите также архив погоды в соседних городах и на ближайших метеорологических станциях:

Погода в Sarmellek (Венгрия) (35 км)
Погода в Szentgotthard (Венгрия) (37 км)
Погода в Szombathely (Венгрия) (46 км)
Погода в Nagykanizsa (Венгрия) (48 км)
Погода в Kleinzicken (Австрия) (51 км)
Погода в Murska Sobota (Словения) (53 км)
Погода в Bad Radkersburg (Австрия) (66 км)
Погода в Bad Tatzmannsdorf (Австрия) (67 км)
Погода в Lutzmannsburg (Австрия) (68 км)
Погода в Bad Gleichenberg (Австрия) (68 км)

Пояснения к столбцам:

Ветер - указаны скорость ветра в м/с - средняя за 10 мин, порывы в срок и между сроками (в фигурных скобках) и направление, откуда дует ветер: С - северный, СВ - северо-восточный, В - восточный, ЮВ - юго-восточный, Ю - южный, ЮЗ - юго-западный, З - западный, СЗ - северо-западный.
Видимость - горизонтальная дальность видимости в метрах или километрах. При видимости от 1 до 10 км при отсутствии осадков обычно наблюдается дымка, при ухудшении видимости до 1 км и менее - туман. В сухую погоду видимость может ухудшаться дымом, пылью или мглою.
Явления - указаны атмосферные явления, наблюдавшиеся в срок или в последний час перед сроком; фигурными скобками обозначены явления, наблюдавшиеся между сроками (за 1-3 часа до срока); квадратными скобками обозначены град или гололедные отложения с указанием их диаметра в мм.
Облачность - указаны через наклонную черту общая и нижняя облачность в баллах и высота нижней границы облаков в метрах; квадратными скобками обозначены формы облаков: Ci - перистые, Cs - перисто-слоистые, Cc - перисто-кучевые, Ac - высококучевые, As - высокослоистые, Sc - слоисто-кучевые, Ns - слоисто-дождевые, Cu - кучевые, Cb - кучево-дождевые. Подробнее классификацию облаков см. в Атласе облаков (PDF).
T - Температура воздуха - температура, измеренная на высоте 2 м над землей.
Td - Температура точки росы - температура, при понижении до которой содержащийся в воздухе водяной пар достигнет насыщения.
f - Относительная влажность воздуха - влажноcть воздуха, измеренная на высоте 2 м над землей.
Te - Эффективная температура - температура, которую ощущает одетый по сезону человек в тени. Характеристика душности погоды. При расчете учитывается влияние влажности воздуха и скорости ветра на теплоощущения человека.
Tes - Эффективная температура на солнце - температура, которую ощущает человек, с поправкой на солнечный нагрев. Характеристика знойности погоды. Зависит от высоты солнца над горизонтом, облачности и скорости ветра. Ночью, в пасмурную погоду, а также при ветре 12 м/с и более поправка равна нулю.
P - Атмосферное давление - приведенное к уровню моря атмосферное давление.
Po - Атмосферное давление - измеренное на уровне метеостанции атмосферное давление.
Tmin - Минимальная температура - минимум температуры воздуха на высоте 2 м над землей.
Tmax - Максимальная температура - максимум температуры воздуха на высоте 2 м над землей.
R - Количество осадков - Количество выпавших осадков за период времени, мм. При наведении курсора мыши на число - период времени, за который выпало указанное количество осадков.
R24 - Количество осадков - Количество выпавших осадков за 24 часа, мм.
S - Снежный покров - Высота снежного покрова, см. При наведении курсора мыши на число - состояние снежного покрова и степень покрытия местности в баллах.